Date String (YYYY-MM-DD hh:mm:ss) UTC,Instrument flags,Ambient pressure (hPa),Sample flow (lpm),Bypass flow (lpm),Sample temperature (°C),Ambient temperature (°C),ASC tube jacket temperature (°C),LED temperature (°C),Box temperature (°C),Sample RH (%),Span deviation,Mass concentration (μg/m³),Mass concentration (μg/m³),Mass concentration (μg/m³)
DateTimeUTC,F1_M11,P_M11,Q1_M11,Q2_M11,T1_M11,T2_M11,T3_M11,T4_M11,T5_M11,U1_M11,ZSPAN_M11,X0_M11,X2_M11,X1_M11
2021-11-25 11:00:00,,0835.2,4.99,0.00,22.6,22.1,00.0,31.5,24.3,13.7,0000.0,0010.55,0006.26,0005.81
2021-11-25 11:01:00,,0835.2,5.00,0.00,22.5,22.0,00.0,31.5,24.2,13.7,0000.0,0010.20,0006.24,0005.80
2021-11-25 11:02:00,,0835.2,5.01,0.00,22.5,21.9,00.0,31.5,24.2,13.7,0000.0,0009.50,0006.22,0005.77
2021-11-25 11:03:00,,0835.2,4.99,0.00,22.5,21.9,00.0,31.5,24.2,13.6,0000.0,0009.34,0006.21,0005.76
2021-11-25 11:04:00,,0835.1,5.00,0.00,22.4,21.8,00.0,31.5,24.1,13.6,0000.0,0009.37,0006.21,0005.75
2021-11-25 11:05:00,,0835.1,4.99,0.00,22.4,21.7,00.0,31.5,24.0,13.5,0000.0,0009.39,0006.19,0005.72
2021-11-25 11:06:00,,0835.1,5.01,0.00,22.3,21.6,00.0,31.4,24.0,13.5,0000.0,0009.35,0006.17,0005.72
2021-11-25 11:07:00,,0835.1,5.00,0.00,22.3,21.5,00.0,31.4,23.9,13.6,0000.0,0008.92,0006.15,0005.72
2021-11-25 11:08:00,,0835.1,4.99,0.00,22.3,21.5,00.0,31.4,23.9,13.6,0000.0,0008.29,0006.13,0005.73
2021-11-25 11:09:00,,0835.0,5.00,0.00,22.2,21.5,00.0,31.4,23.9,13.7,0000.0,0008.30,0006.12,0005.73
2021-11-25 11:10:00,,0835.0,5.00,0.00,22.2,21.4,00.0,31.4,23.9,13.7,0000.0,0008.33,0006.14,0005.74
2021-11-25 11:11:00,,0835.0,5.00,0.00,22.2,21.4,00.0,31.3,23.9,13.7,0000.0,0008.41,0006.16,0005.74
2021-11-25 11:12:00,,0835.0,5.01,0.00,22.2,21.8,00.0,31.3,23.9,13.6,0000.0,0008.45,0006.17,0005.73
2021-11-25 11:13:00,,0835.1,5.00,0.00,22.3,22.5,00.0,31.4,24.1,13.5,0000.0,0008.47,0006.19,0005.73
2021-11-25 11:14:00,,0835.1,5.01,0.00,22.4,23.1,00.0,31.4,24.3,13.4,0000.0,0008.38,0006.16,0005.72
2021-11-25 11:15:00,,0835.1,4.99,0.00,22.5,23.0,00.0,31.4,24.4,13.2,0000.0,0008.37,0006.13,0005.70
2021-11-25 11:16:00,,0835.1,5.00,0.00,22.5,22.8,00.0,31.4,24.4,13.2,0000.0,0008.43,0006.12,0005.67
2021-11-25 11:17:00,,0835.1,5.01,0.00,22.5,22.6,00.0,31.4,24.3,13.3,0000.0,0008.40,0006.09,0005.64
2021-11-25 11:18:00,,0835.1,4.99,0.00,22.5,22.4,00.0,31.4,24.3,13.3,0000.0,0008.34,0006.04,0005.61
2021-11-25 11:19:00,,0835.1,5.01,0.00,22.5,22.2,00.0,31.4,24.3,13.3,0000.0,0008.33,0006.02,0005.57
2021-11-25 11:20:00,,0835.1,5.00,0.00,22.5,22.1,00.0,31.4,24.2,13.3,0000.0,0008.18,0005.95,0005.52
2021-11-25 11:21:00,,0835.1,4.99,0.00,22.5,22.0,00.0,31.4,24.2,13.2,0000.0,0008.47,0005.89,0005.48
2021-11-25 11:22:00,,0835.1,4.99,0.00,22.4,21.9,00.0,31.4,24.1,13.2,0000.0,0008.63,0005.80,0005.42
2021-11-25 11:23:00,,0835.2,5.01,0.00,22.4,21.9,00.0,31.4,24.1,13.2,0000.0,0008.53,0005.71,0005.36
2021-11-25 11:24:00,,0835.1,5.00,0.00,22.4,21.8,00.0,31.4,24.1,13.2,0000.0,0008.46,0005.65,0005.31
2021-11-25 11:25:00,,0835.1,4.99,0.00,22.4,21.7,00.0,31.4,24.1,13.2,0000.0,0008.49,0005.61,0005.28
2021-11-25 11:26:00,,0835.1,5.01,0.00,22.4,21.7,00.0,31.4,24.0,13.2,0000.0,0008.68,0005.62,0005.29
2021-11-25 11:27:00,,0835.1,4.99,0.00,22.3,21.7,00.0,31.4,24.0,13.2,0000.0,0008.68,0005.60,0005.28
2021-11-25 11:28:00,,0835.1,5.00,0.00,22.3,21.6,00.0,31.4,24.0,13.1,0000.0,0008.68,0005.57,0005.25
2021-11-25 11:29:00,,0835.0,4.99,0.00,22.3,21.6,00.0,31.4,24.0,13.1,0000.0,0009.07,0005.54,0005.21
2021-11-25 11:30:00,,0835.1,5.01,0.00,22.3,21.5,00.0,31.4,23.9,13.1,0000.0,0009.43,0005.48,0005.17
2021-11-25 11:31:00,,0835.2,5.00,0.00,22.2,21.5,00.0,31.3,23.9,12.9,0000.0,0009.37,0005.42,0005.12
2021-11-25 11:32:00,,0835.2,4.99,0.00,22.2,21.6,00.0,31.3,23.9,13.0,0000.0,0009.09,0005.38,0005.07
2021-11-25 11:33:00,,0835.2,5.00,0.00,22.3,22.3,00.0,31.3,24.1,13.0,0000.0,0008.63,0005.35,0005.06
2021-11-25 11:34:00,,0835.1,5.00,0.00,22.4,23.0,00.0,31.4,24.3,12.9,0000.0,0009.40,0005.32,0005.04
2021-11-25 11:35:00,,0835.2,5.01,0.00,22.5,23.1,00.0,31.4,24.4,12.9,0000.0,0009.52,0005.33,0005.04
2021-11-25 11:36:00,,0835.1,4.99,0.00,22.5,22.8,00.0,31.4,24.4,12.7,0000.0,0009.45,0005.29,0005.02
2021-11-25 11:37:00,,0835.2,5.00,0.00,22.5,22.5,00.0,31.4,24.3,12.7,0000.0,0009.21,0005.26,0004.98
2021-11-25 11:38:00,,0835.1,4.99,0.00,22.5,22.3,00.0,31.4,24.2,13.0,0000.0,0009.05,0005.29,0005.01
2021-11-25 11:39:00,,0835.2,5.01,0.00,22.4,22.1,00.0,31.4,24.1,13.2,0000.0,0009.15,0005.39,0005.11
2021-11-25 11:40:00,,0835.1,4.99,0.00,22.4,21.9,00.0,31.4,24.0,13.3,0000.0,0008.87,0005.48,0005.21
2021-11-25 11:41:00,,0835.1,5.00,0.00,22.3,21.8,00.0,31.4,24.0,13.1,0000.0,0008.51,0005.53,0005.24
2021-11-25 11:42:00,,0835.1,5.00,0.00,22.3,21.7,00.0,31.4,23.9,13.0,0000.0,0008.67,0005.59,0005.26
2021-11-25 11:43:00,,0835.2,5.01,0.00,22.2,21.6,00.0,31.4,23.9,13.1,0000.0,0008.68,0005.62,0005.31
2021-11-25 11:44:00,,0835.1,5.00,0.00,22.2,21.5,00.0,31.3,23.8,13.2,0000.0,0008.69,0005.69,0005.37
2021-11-25 11:45:00,,0835.2,5.00,0.00,22.2,21.5,00.0,31.3,23.8,13.2,0000.0,0007.98,0005.74,0005.42
2021-11-25 11:46:00,,0835.2,4.99,0.00,22.1,21.4,00.0,31.3,23.8,13.1,0000.0,0008.02,0005.76,0005.42
2021-11-25 11:47:00,,0835.2,5.02,0.00,22.1,21.3,00.0,31.3,23.8,13.2,0000.0,0008.51,0005.87,0005.48
2021-11-25 11:48:00,,0835.1,5.00,0.00,22.1,21.3,00.0,31.3,23.7,13.3,0000.0,0008.59,0005.96,0005.56
2021-11-25 11:49:00,,0835.0,5.00,0.00,22.1,21.3,00.0,31.2,23.7,13.3,0000.0,0008.65,0005.97,0005.57
2021-11-25 11:50:00,,0835.1,5.00,0.00,22.1,21.8,00.0,31.3,23.9,13.0,0000.0,0008.54,0005.84,0005.45
2021-11-25 11:51:00,,0835.0,4.99,0.00,22.2,22.6,00.0,31.3,24.1,12.7,0000.0,0008.37,0005.68,0005.31
2021-11-25 11:52:00,,0835.1,5.01,0.00,22.4,23.2,00.0,31.3,24.3,12.3,0000.0,0008.50,0005.51,0005.15
2021-11-25 11:53:00,,0835.0,4.99,0.00,22.4,22.9,00.0,31.3,24.3,12.2,0000.0,0008.51,0005.39,0005.05
2021-11-25 11:54:00,,0835.0,5.00,0.00,22.4,22.6,00.0,31.3,24.2,12.2,0000.0,0008.30,0005.22,0004.90
2021-11-25 11:55:00,,0835.0,5.00,0.00,22.3,22.3,00.0,31.3,24.1,12.1,0000.0,0008.13,0005.03,0004.72
2021-11-25 11:56:00,,0835.1,5.01,0.00,22.3,22.1,00.0,31.3,24.0,12.1,0000.0,0007.92,0004.87,0004.57
2021-11-25 11:57:00,,0835.1,5.00,0.00,22.3,21.9,00.0,31.3,24.0,12.1,0000.0,0007.66,0004.72,0004.45
2021-11-25 11:58:00,,0835.1,4.99,0.00,22.3,21.8,00.0,31.3,23.9,12.2,0000.0,0006.99,0004.54,0004.33
2021-11-25 11:59:00,,0835.0,5.01,0.00,22.2,21.7,00.0,31.3,23.9,12.2,0000.0,0006.69,0004.37,0004.16
